Date String (YYYY-MM-DD hh:mm:ss) UTC,Instrument flags,Ambient pressure (hPa),Sample flow (lpm),Bypass flow (lpm),Sample temperature (°C),Ambient temperature (°C),ASC tube jacket temperature (°C),LED temperature (°C),Box temperature (°C),Sample RH (%),Span deviation,Mass concentration (μg/m³),Mass concentration (μg/m³),Mass concentration (μg/m³)
DateTimeUTC,F1_M11,P_M11,Q1_M11,Q2_M11,T1_M11,T2_M11,T3_M11,T4_M11,T5_M11,U1_M11,ZSPAN_M11,X0_M11,X2_M11,X1_M11
2022-11-11 21:00:00,,0826.3,5.00,0.00,23.1,21.9,00.0,31.8,25.0,10.0,0001.4,0019.50,0010.79,0008.63
2022-11-11 21:01:00,,0826.3,5.00,0.00,23.1,21.9,00.0,31.9,25.0,10.0,0001.5,0019.63,0010.78,0008.64
2022-11-11 21:02:00,,0826.3,4.99,0.00,23.1,21.9,00.0,31.9,25.0,10.0,0001.5,0020.23,0010.66,0008.59
2022-11-11 21:03:00,,0826.4,4.99,0.00,23.1,21.9,00.0,31.9,25.0,10.0,0001.0,0017.54,0009.29,0007.86
2022-11-11 21:04:00,,0826.4,5.00,0.00,23.1,22.0,00.0,31.8,25.0,10.0,0001.0,0016.30,0008.80,0007.63
2022-11-11 21:05:00,,0826.3,5.00,0.00,23.1,22.0,00.0,31.8,25.0,09.9,0000.7,0015.38,0008.36,0007.42
2022-11-11 21:06:00,,0826.2,5.01,0.00,23.1,22.0,00.0,31.9,25.1,09.8,0000.2,0014.31,0007.81,0007.08
2022-11-11 21:07:00,,0826.2,5.00,0.00,23.1,22.0,00.0,31.9,25.1,09.6,-000.6,0013.15,0007.06,0006.61
2022-11-11 21:08:00,,0826.2,5.00,0.00,23.2,22.0,00.0,31.9,25.0,09.4,-001.0,0012.95,0006.98,0006.54
2022-11-11 21:09:00,,0826.2,5.01,0.00,23.1,22.0,00.0,31.9,25.0,09.4,-001.2,0013.07,0006.91,0006.48
2022-11-11 21:10:00,,0826.2,5.00,0.00,23.2,22.0,00.0,31.9,25.0,09.2,-001.4,0012.35,0006.85,0006.40
2022-11-11 21:11:00,,0826.2,4.99,0.00,23.2,22.0,00.0,31.9,25.1,08.8,-001.6,0012.01,0006.74,0006.30
2022-11-11 21:12:00,,0826.2,5.01,0.00,23.2,22.0,00.0,31.9,25.1,09.0,-001.6,0011.55,0006.64,0006.22
2022-11-11 21:13:00,,0826.1,5.00,0.00,23.2,22.0,00.0,31.9,25.1,09.2,-001.8,0010.42,0006.57,0006.16
2022-11-11 21:14:00,,0826.2,5.00,0.00,23.2,22.0,00.0,31.9,25.0,09.3,-001.4,0010.24,0006.53,0006.11
2022-11-11 21:15:00,,0826.2,5.00,0.00,23.2,22.0,00.0,31.9,25.1,09.5,-001.5,0010.23,0006.50,0006.07
2022-11-11 21:16:00,,0826.2,5.00,0.00,23.2,22.0,00.0,31.9,25.1,09.6,-001.7,0010.31,0006.48,0006.05
2022-11-11 21:17:00,,0826.2,4.99,0.00,23.2,22.0,00.0,31.9,25.1,09.7,-001.7,0010.57,0006.46,0006.05
2022-11-11 21:18:00,,0826.4,5.00,0.00,23.2,22.0,00.0,31.9,25.1,09.7,-001.6,0010.32,0006.43,0006.04
2022-11-11 21:19:00,,0826.4,5.00,0.00,23.2,22.0,00.0,31.9,25.1,09.6,-001.6,0010.29,0006.47,0006.07
2022-11-11 21:20:00,,0826.5,5.01,0.00,23.2,22.0,00.0,32.0,25.1,09.6,-001.4,0010.46,0006.50,0006.11
2022-11-11 21:21:00,,0826.5,5.00,0.00,23.2,22.0,00.0,32.0,25.1,09.5,-001.7,0010.42,0006.58,0006.16
2022-11-11 21:22:00,,0826.5,5.01,0.00,23.2,22.0,00.0,32.0,25.1,09.6,-001.7,0010.62,0006.73,0006.28
2022-11-11 21:23:00,,0826.5,5.00,0.00,23.2,22.1,00.0,32.0,25.1,09.5,-001.6,0011.01,0006.81,0006.33
2022-11-11 21:24:00,,0826.5,5.00,0.00,23.2,22.1,00.0,32.0,25.1,09.5,-001.4,0011.70,0006.85,0006.35
2022-11-11 21:25:00,,0826.5,4.98,0.00,23.3,22.1,00.0,32.0,25.2,09.4,-001.9,0011.97,0006.86,0006.37
2022-11-11 21:26:00,,0826.5,5.00,0.00,23.3,22.1,00.0,32.0,25.2,09.4,-002.1,0012.51,0006.88,0006.39
2022-11-11 21:27:00,,0826.5,5.00,0.00,23.3,22.1,00.0,32.0,25.2,09.4,-001.7,0012.49,0006.90,0006.38
2022-11-11 21:28:00,,0826.5,5.01,0.00,23.3,22.2,00.0,32.0,25.2,09.3,-001.7,0012.46,0006.89,0006.35
2022-11-11 21:29:00,,0826.5,5.01,0.00,23.3,22.2,00.0,32.0,25.2,09.3,-001.6,0012.60,0006.89,0006.31
2022-11-11 21:30:00,,0826.5,5.00,0.00,23.3,22.2,00.0,32.0,25.2,09.2,-001.7,0012.58,0006.87,0006.29
2022-11-11 21:31:00,,0826.5,5.00,0.00,23.3,22.2,00.0,32.0,25.2,09.2,-001.7,0012.46,0006.84,0006.26
2022-11-11 21:32:00,,0826.5,5.00,0.00,23.3,22.2,00.0,32.0,25.2,09.2,-001.8,0012.45,0006.80,0006.22
2022-11-11 21:33:00,,0826.5,4.99,0.00,23.4,22.2,00.0,32.0,25.3,09.2,-001.6,0012.17,0006.68,0006.16
2022-11-11 21:34:00,,0826.5,5.00,0.00,23.4,22.2,00.0,32.1,25.3,09.2,-001.9,0011.75,0006.61,0006.12
2022-11-11 21:35:00,,0826.5,5.01,0.00,23.4,22.3,00.0,32.1,25.3,09.3,-001.9,0010.95,0006.55,0006.10
2022-11-11 21:36:00,,0826.4,5.00,0.00,23.4,22.3,00.0,32.1,25.3,09.4,-001.8,0010.76,0006.58,0006.10
2022-11-11 21:37:00,,0826.4,5.00,0.00,23.4,22.3,00.0,32.1,25.4,09.4,-001.1,0010.57,0006.58,0006.09
2022-11-11 21:38:00,,0826.4,5.01,0.00,23.4,22.3,00.0,32.1,25.3,09.4,-000.7,0010.56,0006.60,0006.11
2022-11-11 21:39:00,,0826.4,5.00,0.00,23.4,22.3,00.0,32.1,25.3,09.5,-000.7,0010.42,0006.60,0006.12
2022-11-11 21:40:00,,0826.4,5.00,0.00,23.4,22.3,00.0,32.1,25.4,09.5,-000.5,0010.40,0006.62,0006.16
2022-11-11 21:41:00,,0826.4,5.00,0.00,23.5,22.3,00.0,32.2,25.4,09.4,-000.2,0010.85,0006.63,0006.17
2022-11-11 21:42:00,,0826.4,4.99,0.00,23.4,22.3,00.0,32.2,25.4,09.3,-000.1,0010.63,0006.62,0006.16
2022-11-11 21:43:00,,0826.4,4.99,0.00,23.5,22.3,00.0,32.2,25.4,09.4,-000.0,0011.07,0006.63,0006.18
2022-11-11 21:44:00,,0826.3,5.00,0.00,23.5,22.3,00.0,32.2,25.4,09.4,-000.0,0012.09,0006.70,0006.21
2022-11-11 21:45:00,,0826.3,5.00,0.00,23.5,22.3,00.0,32.2,25.4,09.4,-000.3,0012.56,0006.73,0006.22
2022-11-11 21:46:00,,0826.3,5.01,0.00,23.5,22.2,00.0,32.2,25.4,09.4,-000.0,0013.00,0006.78,0006.24
2022-11-11 21:47:00,,0826.4,5.00,0.00,23.5,22.1,00.0,32.2,25.3,09.4,-000.2,0012.96,0006.77,0006.25
2022-11-11 21:48:00,,0826.4,4.99,0.00,23.4,22.1,00.0,32.2,25.3,09.3,-000.5,0012.51,0006.74,0006.24
2022-11-11 21:49:00,,0826.3,5.01,0.00,23.4,22.1,00.0,32.2,25.3,09.3,-001.0,0012.39,0006.71,0006.23
2022-11-11 21:50:00,,0826.2,5.00,0.00,23.4,22.1,00.0,32.2,25.3,09.4,-000.8,0012.36,0006.72,0006.23
2022-11-11 21:51:00,,0826.3,4.99,0.00,23.4,22.1,00.0,32.2,25.3,09.3,-000.9,0012.18,0006.73,0006.22
2022-11-11 21:52:00,,0826.3,5.00,0.00,23.4,22.2,00.0,32.2,25.3,09.4,-000.9,0012.00,0006.71,0006.22
2022-11-11 21:53:00,,0826.3,5.00,0.00,23.4,22.2,00.0,32.2,25.3,09.4,-001.2,0012.24,0006.77,0006.23
2022-11-11 21:54:00,,0826.3,5.01,0.00,23.4,22.2,00.0,32.2,25.4,09.3,-001.3,0011.71,0006.76,0006.22
2022-11-11 21:55:00,,0826.3,5.00,0.00,23.5,22.2,00.0,32.2,25.4,09.3,-001.0,0011.09,0006.71,0006.20
2022-11-11 21:56:00,,0826.4,4.99,0.00,23.5,22.3,00.0,32.2,25.4,09.3,-000.7,0010.82,0006.67,0006.19
2022-11-11 21:57:00,,0826.4,5.01,0.00,23.5,22.3,00.0,32.2,25.4,09.2,-000.8,0010.54,0006.67,0006.19
2022-11-11 21:58:00,,0826.4,4.99,0.00,23.5,22.3,00.0,32.2,25.4,09.2,-000.2,0011.33,0006.65,0006.18
2022-11-11 21:59:00,,0826.4,4.99,0.00,23.5,22.3,00.0,32.2,25.4,09.2,0000.2,0011.75,0006.64,0006.18
